"Pseudo-MPEC" for A10vqDl

Created 2021 Feb 24 10:07:04 UT using Find_Orb

Click here for an explanation of pseudo-MPECs

 
 Astrometry: 
     A10vqDl  C2021 02 22.45077 14 14 24.13 -19 21 14.9    ~2N7M 19.0 GVNEOCP703
     A10vqDl  C2021 02 22.45608 14 14 13.82 -19 20 41.0    ~2N7M 18.8 GVNEOCP703
     A10vqDl  C2021 02 22.46139 14 14 03.73 -19 20 06.3    ~2N7M 18.9 GVNEOCP703
     A10vqDl  C2021 02 22.63674614 08 37.36 -19 00 51.6    ~2MHq 18.27cVNEOCPT08
     A10vqDl  C2021 02 22.64089214 08 29.61 -19 00 24.2    ~2MHq 18.19cVNEOCPT08
     A10vqDl  C2021 02 22.64643014 08 19.29 -18 59 47.8    ~2MHq 18.36cVNEOCPT08
     A10vqDl  C2021 02 22.66340314 07 47.68 -18 57 55.2    ~2MHq 18.67cVNEOCPT08
     A10vqDl KC2021 02 23.09568513 55 10.90 -18 10 59.5    ~2N37 18.7 GVNEOCPI93
     A10vqDl KC2021 02 23.09911113 55 05.04 -18 10 37.3    ~2N37 18.7 GVNEOCPI93
     A10vqDl KC2021 02 23.10267913 54 58.87 -18 10 15.4    ~2N37 18.4 GVNEOCPI93
     A10vqDl |C2021 02 23g_?X1x4]Br\#!o.l)eW/[$dD1)7WXiDq.V(aD?]b7?el4N^mp'ON807
     A10vqDl |C2021 02 23ks`N0q`;XbK:#pZ`2K%RnV2sLm!Astrometry^v;f`2M:'_#RyZ3807
     A10vqDl |C2021 02 23ui_A#n!3ZN`'Q;?M0,3BY(I+Uq?2+:!jovG=QZx%tYViy]y+KuSD807
     A10vqDl |C2021 02 2368T-WflLA6A=]^Hr6MFp^jouCT?rS=.Eqredacted;oW])XR$ujw807
     A10vqDl bC2021 02 24S%b#c,clickL8P9IRlf:l^cIu%RTX0)HL'Y,Z\IgbaqB@tG,h9DRL01
     A10vqDl bC2021 02 24b@Wnti$Wk*^/dDjmWcU(+/HZV.IST1MfYGU7X!B=0`;`/1#9/M;CL01
     A10vqDl bC2021 02 24^JE-WTs*@R+ODcPfZaLv;f_'j#@S*6vh`uPqOI!IU`SyhereI)e^L01
     A10vqDl bC2021 02 24DkZ:2?Av;UQ+IkZybd=3W#fWMJB1HhEforbd)V:explanationE1L01
     A10vqDl bC2021 02 24@vpChPv*nxH\VKH3xL/cuQ.]QLA-ffraB**M'iAY7#5bH;,2$'c3L01
     A10vqDl mC2021 02 24.30069613 24 03.56 -15 59 02.2    ~2O7q 18.08GVNEOCPI52
     A10vqDl mC2021 02 24.30094113 24 03.16 -15 58 58.9    ~2O7q 17.98GVNEOCPI52
     A10vqDl mC2021 02 24.30118713 24 02.79 -15 58 57.5    ~2O7q 18.46GVNEOCPI52
     A10vqDl mC2021 02 24.30143213 24 02.33 -15 58 55.3    ~2O7q       VNEOCPI52

Station data:
(703) Catalina Sky Survey  (N32.417006 W110.732640)  US/Arizona.  Observers
   T. A. Pruyne, B. M. Africano, E. J. Christensen, G. A. Farneth, D. C.
   Fuls, A. R. Gibbs, A. D. Grauer, H. Gröller, J. A. Johnson, R. A.
   Kowalski, S. M. Larson, G. J. Leonard, D. Rankin, R. L. Seaman, F. C.
   Shelly. 0.68 m Schmidt + 10K CCD.
(807) Cerro Tololo Observatory, La Serena  (S30.169136 W70.805900)  Chile.
(I52) Steward Observatory, Mt. Lemmon Station  (N32.442547 W110.788920)
   US/Arizona.  Observers T. A. Pruyne, B. M. Africano, E. J. Christensen, G.
   A. Farneth, D. C. Fuls, A. R. Gibbs, A. D. Grauer, H. Gröller, J. A.
   Johnson, R. A. Kowalski, S. M. Larson, G. J. Leonard, D. Rankin, R. L.
   Seaman, F. C. Shelly. 1.0-m reflector + CCD.
(I93) St Pardon de Conques  (N44.558710 W0.203000)  France.  Observer F.
   Losse. 0.40-m f/3.7 reflector + CCD.
(L01) Višnjan Observatory, Tičan  (N45.290900 E13.749300)  Croatia.
   Observers K. Korlević, E. Pettarin. Measurer E. Pettarin. 1.0-m f/2.9
   reflector + CCD.
(T08) ATLAS-MLO, Mauna Loa  (N19.536152 W155.576050)  US/Hawaii.  Observers
   L. Denneau, A. Heinze, H. Weiland, J. Tonry, H. Flewelling, A.
   Fitzsimmons, D. Young, B. Stalder. Measurers L. Denneau, A. Heinze, J.
   Tonry. 0.5-m f/2.0 Schmidt + CCD.

Orbital elements:  A10vqDl
   Perihelion 2021 Jan 5.515107 +/- 0.0845179 TT = 12:21:45 (JD 2459220.015107)
Epoch 2021 Feb 24.0 TT = JDT 2459269.5   Earth MOID: 0.0034   Ve: 0.0051
M  15.24695337 +/- 0.2242440        Ma: 0.0204                AutoNEOCP
n   0.30811329 +/- 0.00399174       Peri.   87.12513 +/- 0.0307818
a   2.17101299 +/- 0.0187672        Node   333.09797 +/- 0.0170535
e   0.7580021 +/- 0.00259714        Incl.    5.31318 +/- 0.0211981
P   3.20                   H 22.0   G  0.15   U  9.0  
q 0.52538053 +/- 0.00109911    Q 3.81664545 +/- 0.0383287
From 23 observations 2021 Feb. 22-24 (44.4 hr); mean residual 0".59
Residuals in arcseconds: 
210222 703  1.6+  .01-    210223 I93  .00   .06+    210224 L01  .44+  .06-    
210222 703  .60-  .21-    210223 I93  .25+  1.5-    210224 L01  .04-  .02+    
210222 703  .25+  .35+    210223 807  .07+  .06-    210224 L01  .35+  .39-    
210222 T08  .32-  .04-    210223 807  .35+  .05-    210224 I52  .91+  1.4-    
210222 T08  .44-  .10+    210223 807  .25+  .02+    210224 I52  .19+  .38+    
210222 T08  .27-  .05+    210223 807  .37+  .08-    210224 I52  .09-  .23+    
210222 T08  .47-  .62+    210224 L01  .42-  .54+    210224 I52  1.7-  .88+    
210223 I93  1.2-  .35+    210224 L01  .56+  .33+    

Ephemerides (geocentric):
Date (UTC) HH   RA              Dec         delta   r     elong  mag " sig PA
---- -- -- --  -------------   -----------  ------ ------ -----  --- ---- ---
2021 02 24 10  13 21 18.135   -15 45 39.47  .09587 1.0547 130.7 18.7 .334 135
2021 02 24 11  13 20 20.963   -15 41 14.98  .09618 1.0553 131.0 18.7 .348 133
2021 02 24 12  13 19 24.189   -15 36 51.19  .09649 1.0558 131.3 18.7 .364 132
2021 02 24 13  13 18 27.811   -15 32 28.13  .09680 1.0564 131.5 18.7 .379 131
2021 02 24 14  13 17 31.826   -15 28 05.81  .09711 1.0569 131.8 18.7 .396 129
2021 02 24 15  13 16 36.233   -15 23 44.24  .09743 1.0575 132.1 18.7 .412 128
2021 02 24 16  13 15 41.029   -15 19 23.44  .09774 1.0581 132.4 18.7 .430 127
2021 02 24 17  13 14 46.211   -15 15 03.42  .09806 1.0586 132.6 18.7 .447 126
2021 02 24 18  13 13 51.778   -15 10 44.19  .09838 1.0592 132.9 18.7 .465 126
2021 02 24 19  13 12 57.727   -15 06 25.77  .09870 1.0597 133.2 18.7 .484 125
2021 02 24 20  13 12 04.054   -15 02 08.17  .09902 1.0603 133.4 18.7 .503 124
2021 02 24 21  13 11 10.759   -14 57 51.41  .09935 1.0608 133.7 18.7 .522 123
2021 02 24 22  13 10 17.839   -14 53 35.48  .09967 1.0614 134.0 18.7 .542 123
2021 02 24 23  13 09 25.290   -14 49 20.41  .10000 1.0620 134.2 18.7 .562 122
2021 02 25 00  13 08 33.111   -14 45 06.20  .10033 1.0625 134.5 18.7 .582 121
2021 02 25 01  13 07 41.299   -14 40 52.86  .10066 1.0631 134.7 18.7 .603 121
2021 02 25 02  13 06 49.852   -14 36 40.41  .10099 1.0636 135.0 18.7 .624 120
2021 02 25 03  13 05 58.767   -14 32 28.85  .10133 1.0642 135.2 18.7 .645 120
2021 02 25 04  13 05 08.041   -14 28 18.19  .10166 1.0647 135.5 18.7 .667 120
2021 02 25 05  13 04 17.673   -14 24 08.44  .10200 1.0653 135.7 18.7 .689 119
2021 02 25 06  13 03 27.660   -14 19 59.60  .10234 1.0658 136.0 18.7 .711 119
2021 02 25 07  13 02 37.999   -14 15 51.69  .10268 1.0664 136.2 18.7 .733 118
2021 02 25 08  13 01 48.687   -14 11 44.71  .10302 1.0670 136.5 18.8 .756 118
2021 02 25 09  13 00 59.723   -14 07 38.67  .10336 1.0675 136.7 18.8 .779 118
2021 02 25 10  13 00 11.104   -14 03 33.58  .10370 1.0681 137.0 18.8 .802 117
2021 02 25 11  12 59 22.827   -13 59 29.43  .10405 1.0686 137.2 18.8 .825 117
2021 02 25 12  12 58 34.891   -13 55 26.24  .10440 1.0692 137.5 18.8 .849 117
2021 02 25 13  12 57 47.291   -13 51 24.02  .10474 1.0697 137.7 18.8 .872 117
2021 02 25 14  12 57 00.026   -13 47 22.76  .10509 1.0703 138.0 18.8 .896 116
2021 02 25 15  12 56 13.094   -13 43 22.47  .10544 1.0709 138.2 18.8 .921 116
2021 02 25 16  12 55 26.492   -13 39 23.17  .10580 1.0714 138.4 18.8 .945 116
2021 02 25 17  12 54 40.217   -13 35 24.84  .10615 1.0720 138.7 18.8 .970 116
2021 02 25 18  12 53 54.268   -13 31 27.50  .10650 1.0725 138.9 18.8 0.99 116
2021 02 25 19  12 53 08.641   -13 27 31.14  .10686 1.0731 139.1 18.8 1.02 115
2021 02 25 20  12 52 23.334   -13 23 35.78  .10722 1.0736 139.4 18.8 1.04 115
2021 02 25 21  12 51 38.345   -13 19 41.41  .10758 1.0742 139.6 18.8 1.07 115
2021 02 25 22  12 50 53.671   -13 15 48.04  .10793 1.0747 139.8 18.8 1.09 115
2021 02 25 23  12 50 09.311   -13 11 55.67  .10830 1.0753 140.1 18.8 1.12 115
2021 02 26 00  12 49 25.261   -13 08 04.31  .10866 1.0759 140.3 18.8 1.15 115
2021 02 26 01  12 48 41.519   -13 04 13.95  .10902 1.0764 140.5 18.8 1.17 115
2021 02 26 02  12 47 58.082   -13 00 24.59  .10939 1.0770 140.7 18.8 1.20 115
2021 02 26 03  12 47 14.949   -12 56 36.25  .10975 1.0775 141.0 18.8 1.22 114
2021 02 26 04  12 46 32.118   -12 52 48.91  .11012 1.0781 141.2 18.8 1.25 114
2021 02 26 05  12 45 49.584   -12 49 02.59  .11049 1.0786 141.4 18.8 1.28 114
2021 02 26 06  12 45 07.348   -12 45 17.27  .11086 1.0792 141.6 18.8 1.30 114
2021 02 26 07  12 44 25.405   -12 41 32.98  .11123 1.0797 141.8 18.8 1.33 114
2021 02 26 08  12 43 43.753   -12 37 49.69  .11160 1.0803 142.0 18.8 1.36 114
2021 02 26 09  12 43 02.391   -12 34 07.42  .11197 1.0809 142.3 18.8 1.38 114